Regional Weather Roundup
Issued by NWS

Home | Current Version | Previous Version | Text Only | Print | Product List | Glossary Off
Versions: 1 2 3 4 5 6 7 8 9 10 11 12 13 14 15 16 17 18 19 20 21 22 23 24 25 26 27 28 29 30 31 32 33 34 35 36 37 38 39 40 41 42 43 44 45 46 47 48 49 50

000
ASUS45 KSLC 261110
RWRUT

UTAH REGIONAL WEATHER ROUNDUP
NATIONAL WEATHER SERVICE SALT LAKE CITY UT
500 AM MDT THU APR 26 2018

UTZ001>011-023>025-261200-

NORTHERN UTAH

CITY           SKY/WX    TMP DP  RH WIND       PRES   REMARKS
BRIGHAM CITY   CLEAR     42  33  70 N3        30.16S
HILL AFB       CLEAR     48  24  39 SE16      30.15R
LOGAN          CLEAR     41  32  70 CALM      30.18R
OGDEN          CLEAR     47  26  44 S6        30.14S
SALT LAKE CITY PTCLDY    50  37  61 SE3       30.14R
TOOELE VALLEY  CLEAR     37  32  81 S8        30.16R WCI  31
WENDOVER       CLEAR     51  23  33 NW7       30.16R
HEBER CITY       N/A     32  23  69 CALM      30.21S
WEST JORDAN    CLEAR     47  30  50 W5        30.16S

$$

UTZ011>015-024>027-261200-

CENTRAL/NORTHEAST UTAH

CITY           SKY/WX    TMP DP  RH WIND       PRES   REMARKS
PROVO AIRPORT  CLEAR     46  31  55 S5        30.16S
MOAB/CANYONLAN CLEAR     44  11  26 W5        30.09R
DELTA          CLEAR     46  28  49 NE5       30.14S
PRICE          CLEAR     43  17  35 N6        30.17S
RICHFIELD      CLEAR     37  28  70 CALM      30.19R
ROOSEVELT      CLEAR     46  23  39 S5        30.20R
VERNAL         CLEAR     48  19  31 E6        30.20R

$$

UTZ013>016-019>022-027-261200-

SOUTHERN UTAH

CITY           SKY/WX    TMP DP  RH WIND       PRES   REMARKS
BRYCE CANYON   CLEAR     32  21  64 W7        30.25S WCI  26
CEDAR CITY     CLEAR     43  30  60 E5        30.14R
MILFORD        CLEAR     39  29  67 N5        30.14R
ST GEORGE      SUNNY     58  25  28 SE7       29.99S
HANKSVILLE     CLEAR     43   5  21 NW5       30.12R
KANAB          CLEAR     43  27  52 NE7       30.14R
BLANDING         N/A     46  18  32 NW10      30.19S

$$

REGIONAL REPORTS     COLORADO/ARIZONA

CITY           SKY/WX    TMP DP  RH WIND       PRES   REMARKS
CRAIG, CO      CLEAR     40  23  50 VRB5      30.22R
GRAND JUNCTION CLEAR     45  14  28 CALM      30.13R
RIFLE, CO      CLEAR     37  24  59 S3        30.17R
MONTROSE, CO   PTCLDY    36  16  44 E7        30.16R WCI  30
CORTEZ, CO     CLEAR     33   6  32 E7        30.13F WCI  27
COLORADO CITY    N/A     45  27  49 E3        30.11S
PAGE, AZ       CLEAR     59  21  23 CALM      30.05
GRAND CANYON   CLEAR     32  14  47 CALM      30.18S HAZE
KINGMAN, AZ    CLEAR     55  19  24 CALM      29.99R
FLAGSTAFF, AZ  PTCLDY    33  17  51 CALM      30.19S

$$

REGIONAL REPORTS    NEVADA/IDAHO/WYOMING

CITY           SKY/WX    TMP DP  RH WIND       PRES   REMARKS
LAS VEGAS, NV  PTCLDY    72  24  16 SW3       29.89R
ELY, NY        CLEAR     33  18  53 S12       30.22R WCI  24
ELKO, NV       CLEAR     39  26  59 E3        30.19R
POCATELLO, ID  CLEAR     40  30  67 CALM      30.22R
BURLEY, ID     CLEAR     33  26  75 CALM      30.19R
FORT BRIDGER,    N/A     34  22  62 SE9       30.29R WCI  26
EVANSTON, WY   CLEAR     36  21  54 SE5       30.25S WCI  32
ROCK SPRINGS,  CLEAR     34  28  79 E14       30.29R WCI  25
KEMMERER, WY   CLEAR     32  23  69 NW10      30.27R WCI  24

$$



USA.gov is the U.S. government's official web portal to all federal, state and local government web resources and services.